Zurück zum Katalog

HJS-6D

AktivWissenschaftVLEO
NORAD 63431·PAYLOAD·🇨🇳 China

Gestartet Apr 1, 2025 von Jiuquan Satellite Launch Center

Loading…

Nächste Überflüge (nächste 24 Stunden)

TLE

AktuellSource: Space-Track

Epoche: Sep 14, 2026, 14:45 UTC

1 63431U 25067D   26257.61500825  .00010453  00000-0  50354-3 0  9999
2 63431  54.9974 356.8623 0004510 165.0117 195.1037 15.19308248 81524

Verfolge HJS-6D in Echtzeit mit AllMySat

Download on the App Store